Flag for Mauritania Weather past 2 weeks in Nouakchott, Mauritania

Now
77 °F

Passing clouds.


Feels Like: 79 °F
Forecast: 78 / 87 °F
Wind: 6 mph from South

Location: Nouakchott Airport

Current Time: Jul 31, 2014 at 7:52:10 AM

Latest Report: Jul 31, 2014 at 7:30 AM


Visibility: 5 mi

Pressure: 29.89 "Hg

Humidity: 79%

Dew point: 70 °F

Location of NouakchottLocation

Historic Weather in Nouakchott — Graph

°F

Nouakchott temperature yesterday

Maximum temperature yesterday: 86 °F (at 3:30 PM)
Minimum temperature yesterday: 77 °F (at 6:00 AM)
Average temperature yesterday: 81 °F

Past Weeks' High & Low Weather Summary

 TemperatureHumidityPressure
High111 °F (Jul 28, 2:30 PM)94% (Jul 20, 6:30 AM)30.04 "Hg (Jul 20, 6:30 AM)
Low73 °F (Jul 16, 7:00 AM)6% (Jul 28, 2:30 PM)29.74 "Hg (Jul 28, 4:30 PM)
Average80 °F69%29.88 "Hg
* Reported Jul 16 7:00 AM — Jul 31 7:00 AM, Nouakchott, Weather by CustomWeather, © 2014

Note: Actual official high and low records may vary slightly from our data, if they occured in-between our weather recording intervals... More about our weather records

Advertising

Nouakchott weather history for previous 24 hours

 ConditionsComfort  
Time TempWeatherWind HumidityBarometerVisibility
7:00 AM
Jul 31
77 °FPassing clouds.3 mph79%29.89 "Hg5 mi
6:30 AM77 °FPassing clouds.5 mph83%29.86 "Hg5 mi
6:00 AM77 °FPassing clouds.6 mph83%29.86 "Hg5 mi
5:30 AM77 °FPassing clouds.5 mph83%29.86 "Hg5 mi
5:00 AM77 °FPassing clouds.6 mph83%29.86 "Hg5 mi
4:30 AM79 °FPassing clouds.7 mph79%29.86 "Hg5 mi
4:00 AM77 °FPassing clouds.3 mph83%29.86 "Hg5 mi
3:30 AM77 °FPassing clouds.6 mph83%29.86 "Hg5 mi
3:00 AM79 °FPassing clouds.6 mph79%29.83 "Hg5 mi
2:30 AM79 °FPassing clouds.7 mph79%29.83 "Hg5 mi
2:00 AM79 °FPassing clouds.8 mph79%29.86 "Hg5 mi
1:30 AM79 °FPassing clouds.8 mph79%29.86 "Hg5 mi
1:00 AM79 °FPassing clouds.7 mph79%29.86 "Hg5 mi
12:30 AM79 °FPassing clouds.7 mph79%29.86 "Hg5 mi
12:00 AM79 °FPassing clouds.9 mph79%29.86 "Hg5 mi
11:30 PM
Jul 30
79 °FPassing clouds.9 mph79%29.86 "Hg5 mi
11:00 PM79 °FPassing clouds.10 mph79%29.86 "Hg5 mi
10:30 PM79 °FPassing clouds.12 mph79%29.86 "Hg5 mi
10:00 PM79 °FPassing clouds.12 mph79%29.86 "Hg5 mi
9:30 PM79 °FPassing clouds.10 mph79%29.86 "Hg5 mi
9:00 PM79 °FPassing clouds.10 mph79%29.83 "Hg5 mi
8:30 PM79 °FPassing clouds.9 mph79%29.83 "Hg5 mi
8:00 PM79 °FPassing clouds.12 mph79%29.80 "Hg5 mi
7:30 PM79 °FPassing clouds.13 mph79%29.80 "Hg5 mi
7:00 PM81 °FPassing clouds.13 mph74%29.80 "Hg5 mi
6:30 PM81 °FPassing clouds.12 mph70%29.80 "Hg5 mi
6:00 PM81 °FScattered clouds.13 mph70%29.80 "Hg5 mi
5:30 PM82 °FPassing clouds.14 mph66%29.80 "Hg5 mi
5:00 PM84 °FPassing clouds.13 mph66%29.80 "Hg5 mi
4:30 PM86 °FPassing clouds.13 mph59%29.80 "Hg5 mi
4:00 PM86 °FPassing clouds.9 mph59%29.80 "Hg5 mi
3:30 PM86 °FPassing clouds.8 mph59%29.80 "Hg5 mi
3:00 PM84 °FPassing clouds.8 mph62%29.80 "Hg5 mi
2:30 PM84 °FPassing clouds.9 mph62%29.80 "Hg5 mi
2:00 PM84 °FPassing clouds.9 mph62%29.83 "Hg5 mi
1:30 PM84 °FPassing clouds.9 mph58%29.83 "Hg5 mi
1:00 PM84 °FPassing clouds.7 mph58%29.83 "Hg5 mi
12:30 PM84 °FPassing clouds.8 mph58%29.86 "Hg5 mi
12:00 PM82 °FPassing clouds.9 mph66%29.86 "Hg5 mi
11:30 AM82 °FPassing clouds.12 mph66%29.86 "Hg5 mi
11:00 AM82 °FPassing clouds.12 mph66%29.83 "Hg5 mi
10:30 AM82 °FPassing clouds.10 mph66%29.86 "Hg5 mi
10:00 AM82 °FPassing clouds.9 mph66%29.86 "Hg5 mi
9:30 AM81 °FClear.13 mph70%29.83 "Hg5 mi
9:00 AM81 °FClear.13 mph74%29.83 "Hg5 mi
8:30 AM79 °FClear.13 mph79%29.83 "Hg5 mi
8:00 AM79 °FClear.10 mph79%29.80 "Hg4 mi
7:30 AM79 °FScattered clouds.12 mph79%29.80 "Hg4 mi
7:00 AM77 °FScattered clouds.12 mph83%29.80 "Hg4 mi
Weather by CustomWeather, © 2014

See weather overviewHow to use our weather pages